^^
Your Local Weather - Clay, NY Station Historical Data
 
Daily Summary for February 22, 2018 Units:  Metric    English   Both
« Previous Day
Next Day »
Daily Weekly Monthly Yearly Custom
  Current: High: Low: Average:
Temperature: 0.6 °C 0.8 °C 0.6 °C 0.7 °C
Dew Point: -1.3 °C -1.3 °C -2 °C -1.7 °C
Humidity: 87% 87% 82% 84%
Wind Speed: 0km/h 1.6km/h 0km/h 0.2km/h
Wind Gust: 0km/h 4.8km/h - -
WindCalm - - WNW
Pressure: 1036.8 hPa 1036.8 hPa 1035.1 hPa -
Precipitation: 0 mm      
Historical Graphs
 
 
Tabular Data for February 22, 2018
Time Temperature Dew Point Pressure Wind Wind Speed Wind Gust Humidity Rainfall Rate (Hourly) solar
00:02 0.7 °C -2 °C 1035.1 hPa WNW 1.6 km/h 3.2 km/h 82% 0 mm 0 W/m2
00:08 0.8 °C -1.9 °C 1035.1 hPa WNW 1.6 km/h 3.2 km/h 82% 0 mm 0 W/m2
00:14 0.7 °C -2 °C 1035.1 hPa Calm   1.6 km/h 82% 0 mm 0 W/m2
00:20 0.8 °C -1.9 °C 1035.1 hPa Calm   4.8 km/h 82% 0 mm 0 W/m2
00:26 0.8 °C -1.9 °C 1035.4 hPa Calm   4.8 km/h 82% 0 mm 0 W/m2
00:32 0.8 °C -1.9 °C 1035.4 hPa WNW 1.6 km/h 1.6 km/h 82% 0 mm 0 W/m2
00:38 0.8 °C -1.9 °C 1035.4 hPa WNW 1.6 km/h 1.6 km/h 82% 0 mm 0 W/m2
00:44 0.8 °C -1.9 °C 1035.1 hPa Calm   3.2 km/h 82% 0 mm 0 W/m2
00:50 0.8 °C -1.9 °C 1035.4 hPa WNW 1.6 km/h 1.6 km/h 82% 0 mm 0 W/m2
00:56 0.8 °C -1.9 °C 1035.4 hPa WNW 1.6 km/h 3.2 km/h 82% 0 mm 0 W/m2
01:02 0.8 °C -1.9 °C 1035.4 hPa WNW 1.6 km/h 1.6 km/h 82% 0 mm 0 W/m2
01:08 0.8 °C -1.9 °C 1035.8 hPa Calm   3.2 km/h 82% 0 mm 0 W/m2
01:14 0.8 °C -1.9 °C 1035.4 hPa Calm   1.6 km/h 82% 0 mm 0 W/m2
01:20 0.8 °C -1.9 °C 1035.8 hPa Calm     82% 0 mm 0 W/m2
01:26 0.8 °C -1.9 °C 1035.8 hPa Calm   1.6 km/h 82% 0 mm 0 W/m2
01:32 0.8 °C -1.9 °C 1035.8 hPa Calm   3.2 km/h 82% 0 mm 0 W/m2
01:38 0.7 °C -2 °C 1035.8 hPa WNW 1.6 km/h 3.2 km/h 82% 0 mm 0 W/m2
01:44 0.7 °C -1.8 °C 1035.8 hPa Calm   3.2 km/h 83% 0 mm 0 W/m2
01:50 0.8 °C -1.8 °C 1035.8 hPa WNW 1.6 km/h 1.6 km/h 83% 0 mm 0 W/m2
01:56 0.7 °C -1.8 °C 1035.8 hPa Calm   1.6 km/h 83% 0 mm 0 W/m2
02:02 0.7 °C -1.8 °C 1035.8 hPa Calm     83% 0 mm 0 W/m2
02:08 0.7 °C -1.8 °C 1035.8 hPa Calm     83% 0 mm 0 W/m2
02:14 0.7 °C -1.9 °C 1035.8 hPa Calm     83% 0 mm 0 W/m2
02:20 0.7 °C -1.9 °C 1035.8 hPa Calm     83% 0 mm 0 W/m2
02:26 0.7 °C -1.9 °C 1035.8 hPa WNW 1.6 km/h 4.8 km/h 83% 0 mm 0 W/m2
02:32 0.7 °C -1.9 °C 1035.8 hPa Calm     83% 0 mm 0 W/m2
02:38 0.7 °C -1.7 °C 1035.8 hPa Calm     84% 0 mm 0 W/m2
02:44 0.7 °C -1.9 °C 1035.8 hPa Calm     83% 0 mm 0 W/m2
02:50 0.7 °C -1.7 °C 1035.8 hPa Calm     84% 0 mm 0 W/m2
02:56 0.7 °C -1.7 °C 1035.8 hPa Calm     84% 0 mm 0 W/m2
03:02 0.7 °C -1.7 °C 1036.1 hPa Calm     84% 0 mm 0 W/m2
03:08 0.7 °C -1.7 °C 1036.1 hPa Calm     84% 0 mm 0 W/m2
03:14 0.7 °C -1.7 °C 1035.8 hPa Calm     84% 0 mm 0 W/m2
03:20 0.7 °C -1.7 °C 1035.8 hPa Calm     84% 0 mm 0 W/m2
03:26 0.7 °C -1.7 °C 1035.8 hPa Calm     84% 0 mm 0 W/m2
03:32 0.7 °C -1.6 °C 1035.8 hPa Calm     85% 0 mm 0 W/m2
03:38 0.7 °C -1.7 °C 1035.8 hPa Calm     84% 0 mm 0 W/m2
03:44 0.7 °C -1.6 °C 1035.8 hPa Calm     85% 0 mm 0 W/m2
03:50 0.7 °C -1.6 °C 1035.8 hPa Calm     85% 0 mm 0 W/m2
03:56 0.7 °C -1.6 °C 1035.8 hPa Calm   1.6 km/h 85% 0 mm 0 W/m2
04:02 0.6 °C -1.6 °C 1035.8 hPa Calm     85% 0 mm 0 W/m2
04:08 0.6 °C -1.6 °C 1035.4 hPa Calm     85% 0 mm 0 W/m2
04:14 0.6 °C -1.6 °C 1035.8 hPa Calm     85% 0 mm 0 W/m2
04:20 0.6 °C -1.6 °C 1035.8 hPa Calm     85% 0 mm 0 W/m2
04:26 0.6 °C -1.6 °C 1035.8 hPa Calm     85% 0 mm 0 W/m2
04:32 0.6 °C -1.6 °C 1035.8 hPa Calm     85% 0 mm 0 W/m2
04:38 0.6 °C -1.6 °C 1035.8 hPa Calm     85% 0 mm 0 W/m2
04:44 0.6 °C -1.7 °C 1035.8 hPa Calm     85% 0 mm 0 W/m2
04:50 0.6 °C -1.7 °C 1035.8 hPa Calm     85% 0 mm 0 W/m2
04:56 0.6 °C -1.7 °C 1035.8 hPa Calm   1.6 km/h 85% 0 mm 0 W/m2
05:02 0.6 °C -1.7 °C 1035.8 hPa Calm     85% 0 mm 0 W/m2
05:08 0.6 °C -1.6 °C 1035.8 hPa Calm     85% 0 mm 0 W/m2
05:14 0.6 °C -1.7 °C 1035.8 hPa Calm   1.6 km/h 85% 0 mm 0 W/m2
05:20 0.6 °C -1.7 °C 1036.1 hPa Calm     85% 0 mm 0 W/m2
05:26 0.6 °C -1.6 °C 1036.1 hPa Calm     85% 0 mm 0 W/m2
05:32 0.6 °C -1.4 °C 1036.5 hPa Calm     86% 0 mm 0 W/m2
05:38 0.6 °C -1.4 °C 1036.1 hPa Calm     86% 0 mm 0 W/m2
05:44 0.6 °C -1.4 °C 1036.1 hPa Calm     86% 0 mm 0 W/m2
05:50 0.6 °C -1.6 °C 1036.1 hPa Calm     85% 0 mm 0 W/m2
05:56 0.6 °C -1.6 °C 1035.8 hPa Calm     85% 0 mm 0 W/m2
06:02 0.6 °C -1.6 °C 1035.8 hPa Calm     85% 0 mm 0 W/m2
06:08 0.6 °C -1.4 °C 1035.8 hPa Calm     86% 0 mm 0 W/m2
06:14 0.7 °C -1.4 °C 1035.8 hPa Calm     86% 0 mm 0 W/m2
06:20 0.6 °C -1.4 °C 1035.8 hPa Calm     86% 0 mm 0 W/m2
06:26 0.6 °C -1.4 °C 1035.8 hPa Calm     86% 0 mm 0 W/m2
06:32 0.6 °C -1.4 °C 1035.8 hPa Calm     86% 0 mm 0 W/m2
06:38 0.6 °C -1.4 °C 1035.8 hPa Calm     86% 0 mm 0 W/m2
06:44 0.6 °C -1.4 °C 1035.8 hPa Calm     86% 0 mm 0 W/m2
06:50 0.7 °C -1.4 °C 1035.8 hPa Calm     86% 0 mm 0 W/m2
06:56 0.7 °C -1.4 °C 1035.8 hPa Calm     86% 0 mm 0 W/m2
07:02 0.6 °C -1.4 °C 1036.1 hPa Calm     86% 0 mm 0 W/m2
07:08 0.6 °C -1.5 °C 1035.8 hPa Calm     86% 0 mm 9 W/m2
07:14 0.6 °C -1.5 °C 1036.5 hPa Calm     86% 0 mm 5 W/m2
07:20 0.6 °C -1.3 °C 1036.5 hPa Calm     87% 0 mm 14 W/m2
07:26 0.6 °C -1.4 °C 1036.5 hPa Calm     86% 0 mm 18 W/m2
07:32 0.6 °C -1.3 °C 1036.5 hPa Calm   1.6 km/h 87% 0 mm 7 W/m2
07:38 0.6 °C -1.3 °C 1036.5 hPa Calm   1.6 km/h 87% 0 mm 11 W/m2
07:44 0.6 °C -1.3 °C 1036.8 hPa Calm     87% 0 mm 14 W/m2
07:50 0.6 °C -1.3 °C 1036.8 hPa Calm     87% 0 mm 18 W/m2
Country Meadow, Clay, NY, USA
Compliments of Weather Underground - 2 mb